Theta_e
310 310 310 310 311 311 311 311 311 311 311 311 311 311 311 311 311 311 311 311 311 311 311 311 311 311 310 310 310 310 311 312 312 312 313 313 313 313 312 312 312 312 312 312 312 313 313 313 314 314 313 313 314 316 315 316 315 319 331 330 323 324 323 319 317 315 317 321 313 311 314 314 315 313 313 314 314 314 314 314 315 316 316 316 315 315 315 315
310 310 310 310 310 311 311 311 311 311 311 311 311 311 311 311 311 311 311 311 311 311 311 311 311 311 310 310 310 310 311 312 312 312 313 313 313 313 313 312 312 312 311 312 312 312 313 313 314 314 314 314 314 315 315 316 314 320 328 326 329 329 319 314 314 311 313 316 312 312 313 313 315 313 313 315 314 314 314 315 314 315 316 316 316 315 315 315
310 310 310 310 311 311 311 311 311 311 311 311 311 311 310 311 311 311 311 311 311 310 311 311 311 310 310 310 310 311 311 312 313 313 314 314 314 314 314 313 312 312 312 313 313 313 314 314 315 314 314 314 314 315 314 316 314 315 320 327 334 323 313 312 312 312 313 313 312 312 312 313 314 313 314 314 313 313 314 315 314 315 316 316 316 315 315 315
310 310 310 310 310 311 311 311 311 311 311 311 310 310 310 311 311 311 311 310 310 310 310 311 310 310 310 310 310 311 312 312 313 314 314 314 315 315 314 313 312 314 315 315 314 314 314 314 315 314 315 315 315 315 314 314 314 313 318 326 322 312 313 315 312 314 313 313 313 312 313 313 313 314 314 313 314 315 314 315 315 316 316 316 316 315 315 315
310 310 310 310 310 310 311 311 311 311 311 310 310 310 310 311 311 311 310 310 310 310 311 311 310 310 310 310 311 312 313 314 314 315 315 315 315 314 314 314 315 317 317 316 315 314 314 314 315 315 316 315 315 316 314 313 314 314 315 316 312 310 315 315 312 314 313 313 313 312 313 314 314 314 314 313 316 317 315 316 316 316 316 316 316 315 315 315
309 310 310 310 310 310 311 311 311 311 310 310 310 310 310 311 311 310 310 310 309 309 310 311 310 310 309 310 311 312 313 314 315 315 315 315 314 314 314 315 316 317 317 317 314 314 314 314 315 315 315 314 314 316 315 313 314 318 315 310 311 312 314 313 313 314 313 313 313 312 314 314 313 314 314 313 315 316 316 316 316 316 316 315 316 315 315 315
309 309 309 310 310 310 311 310 310 309 309 309 309 309 310 310 310 309 309 309 308 309 311 310 309 309 309 310 312 313 313 313 314 314 314 314 314 314 314 315 316 317 318 318 315 314 314 314 315 315 315 314 313 313 314 314 313 319 318 311 312 312 312 313 313 313 312 313 313 313 313 313 314 314 313 313 315 316 315 316 315 316 316 315 316 316 315 316
309 309 309 310 310 310 310 310 308 308 307 307 307 308 309 309 309 309 309 308 308 310 310 310 309 309 310 310 312 313 313 314 314 314 313 313 314 314 313 315 317 318 319 319 316 314 314 315 315 315 314 313 314 313 313 314 314 317 318 312 312 313 312 313 313 313 313 313 313 313 313 313 314 313 312 314 316 316 315 316 316 316 316 316 316 316 316 316
309 309 309 309 310 309 308 308 307 306 306 306 306 307 308 308 308 308 308 308 308 310 310 310 309 309 310 310 312 314 314 314 314 313 313 313 314 314 313 314 317 318 318 319 317 315 315 315 315 316 314 313 314 313 312 315 315 314 315 313 312 313 313 314 313 313 313 313 313 314 313 312 313 313 314 316 316 316 316 316 316 316 316 317 316 316 316 316
308 308 309 308 308 307 306 306 306 306 306 306 306 306 307 307 307 307 308 308 309 310 309 309 309 309 310 310 313 313 313 315 314 313 313 314 314 313 314 313 316 318 318 319 317 315 315 315 315 315 315 314 314 313 313 315 315 313 313 313 313 313 313 314 314 313 313 313 313 314 314 312 312 313 316 316 316 316 316 316 316 316 315 316 316 316 316 316
307 307 307 306 306 306 306 306 306 306 306 307 307 307 307 307 307 307 308 309 309 309 309 309 309 309 309 310 313 313 314 315 313 312 313 313 314 314 313 314 316 318 319 318 317 316 316 315 315 315 316 315 314 313 313 313 314 313 313 315 314 314 314 313 313 313 314 314 313 314 313 312 311 313 316 315 315 316 315 316 315 315 316 316 315 316 316 316
306 306 306 306 306 306 305 305 306 306 306 306 306 307 307 307 308 308 308 308 308 309 309 309 309 309 310 310 312 313 315 316 314 312 314 314 313 314 313 315 317 318 319 319 317 317 317 316 315 315 316 314 315 314 313 314 313 313 315 318 318 319 318 313 312 312 313 315 313 313 314 316 315 314 316 314 315 316 315 316 315 315 316 315 316 315 315 315
306 306 306 306 306 306 306 306 306 306 306 306 306 306 307 307 307 307 308 308 308 308 308 309 309 309 309 310 312 312 313 316 315 312 313 314 313 313 314 316 318 318 319 318 318 318 317 317 316 316 315 314 315 313 314 313 312 316 313 316 322 324 321 313 310 312 312 313 312 313 318 325 323 315 314 315 314 315 315 315 316 316 315 316 316 315 316 315
307 307 307 307 307 307 307 307 306 306 306 306 306 306 307 307 307 307 307 308 308 308 308 309 309 309 309 311 313 313 312 315 316 314 313 314 313 313 315 317 319 318 318 318 318 317 316 317 317 317 315 315 314 313 319 316 315 319 312 318 324 319 321 316 309 311 313 313 312 313 318 324 324 317 313 315 314 314 314 316 316 315 315 315 316 315 316 316
308 308 308 308 308 308 308 308 308 307 307 306 306 306 306 306 307 307 307 308 308 308 308 308 308 310 310 310 311 312 312 313 316 316 313 314 314 314 316 318 318 318 318 318 318 317 317 317 316 317 314 315 315 317 325 322 322 322 314 324 325 316 327 324 308 309 313 313 311 313 318 320 320 316 314 314 314 313 313 315 316 315 316 315 315 316 316 316
309 308 308 309 309 309 309 309 309 308 308 308 307 306 306 306 306 306 307 307 307 308 308 309 309 310 311 311 311 312 312 313 316 317 314 314 314 314 317 318 318 318 318 318 318 318 318 317 316 315 313 315 320 328 332 325 326 326 318 323 324 318 326 322 310 307 309 311 311 313 317 322 320 314 314 314 313 313 313 315 316 315 316 316 316 316 316 317
310 309 309 309 309 309 309 309 309 309 309 309 308 308 307 307 307 306 307 307 307 308 308 310 311 310 311 311 312 313 312 312 315 317 317 314 314 315 317 318 318 318 318 318 318 317 317 317 315 315 315 315 319 329 330 322 326 328 320 320 322 320 320 320 318 310 306 311 313 313 314 319 319 313 314 315 312 312 312 314 317 316 316 316 316 317 317 318
310 309 309 309 309 309 309 310 309 309 309 309 309 309 308 308 307 307 307 306 307 308 309 311 311 312 312 311 313 313 313 313 314 317 317 315 314 316 318 318 317 318 318 317 317 317 317 315 316 318 320 319 319 325 328 325 327 328 325 323 321 319 317 320 324 313 308 313 314 315 314 315 315 312 313 315 313 311 312 314 315 316 316 317 317 317 317 318
314 311 309 309 309 309 308 309 309 309 309 309 309 309 309 308 308 308 307 307 308 310 311 311 311 313 314 311 311 314 314 313 314 316 317 316 315 317 318 318 318 317 317 318 318 315 316 316 318 321 321 322 321 321 326 327 326 327 331 333 327 321 319 321 324 313 308 313 316 315 315 314 314 313 312 314 313 310 312 313 314 315 317 317 318 318 319 318
319 317 313 310 309 308 308 308 307 308 308 308 309 308 308 308 308 308 308 308 308 310 312 313 310 311 314 312 311 313 315 314 315 316 317 317 316 317 318 316 317 317 316 321 320 313 315 321 323 323 323 324 322 319 322 322 321 324 328 330 326 321 322 323 322 313 306 313 320 317 315 314 313 313 311 312 312 309 310 311 313 316 317 318 318 318 319 319
322 321 319 316 311 309 308 308 307 307 307 307 308 308 308 308 309 309 308 308 308 308 309 312 311 310 312 313 312 313 314 314 315 316 317 317 317 317 317 316 318 319 315 314 316 314 317 322 323 323 320 319 320 319 320 320 321 325 323 322 322 322 324 321 318 314 308 312 321 318 316 316 313 313 311 310 311 310 311 311 312 316 317 318 318 318 319 319
323 322 322 321 318 313 309 309 309 308 307 307 307 308 307 307 309 311 310 309 309 308 308 309 310 311 311 312 313 313 314 315 316 317 317 317 317 317 316 317 320 322 315 311 316 320 321 323 323 316 310 312 316 317 320 320 323 328 323 319 322 322 321 318 314 314 311 312 321 320 316 316 314 313 311 310 310 312 314 315 315 316 316 316 317 317 318 318
323 323 322 322 322 319 313 309 309 309 308 308 307 307 308 308 308 309 309 310 310 309 309 309 309 309 310 311 312 313 314 315 315 316 317 316 316 317 315 317 322 322 317 317 322 323 322 324 319 308 307 315 317 316 319 319 321 326 322 321 324 321 319 318 316 315 313 312 318 319 316 315 314 314 313 311 310 312 314 315 316 315 315 316 317 317 316 317
322 323 323 323 322 322 319 314 310 309 309 309 308 307 307 308 307 308 308 309 311 310 309 309 310 308 309 310 310 312 313 314 314 315 316 316 316 316 314 316 320 320 317 319 320 320 322 318 309 305 310 321 320 316 318 319 320 321 321 322 323 322 320 319 318 317 317 314 313 316 319 321 321 321 321 316 310 311 313 314 315 316 316 317 317 317 317 318
322 322 323 323 322 322 321 319 314 311 309 309 309 309 308 307 308 308 309 310 311 312 309 309 310 310 309 309 310 312 313 313 314 314 316 316 316 315 314 313 317 320 319 318 317 319 321 311 308 311 314 319 321 319 320 321 321 321 321 321 320 320 319 318 319 319 322 323 315 314 321 329 331 327 324 323 319 316 314 312 313 316 317 316 317 318 318 318
321 322 322 322 322 322 321 320 318 315 313 309 309 309 308 308 309 309 311 313 312 312 311 310 311 311 310 310 310 311 313 313 312 314 315 316 316 314 315 313 313 317 317 316 316 318 317 309 311 319 317 317 319 319 320 318 320 322 319 319 316 315 317 317 318 319 324 326 314 311 320 326 326 321 319 322 322 319 316 313 312 314 316 316 317 318 318 318
320 321 321 322 322 322 321 321 320 319 316 312 310 309 309 310 310 308 311 315 313 312 313 312 310 311 311 311 311 310 312 313 312 314 315 315 315 313 317 316 312 314 312 313 316 316 315 313 314 319 321 319 317 320 320 315 321 325 317 317 316 315 318 319 317 318 323 322 315 316 322 322 322 320 319 320 322 322 322 320 316 313 314 316 317 317 317 317
318 319 320 322 322 322 322 321 321 320 319 316 311 309 310 310 311 310 312 314 312 311 313 312 310 311 311 311 312 310 311 312 313 315 315 315 315 313 316 316 316 317 310 312 320 314 313 318 317 318 321 320 319 323 319 314 321 322 312 314 317 317 320 321 321 321 320 320 320 319 319 321 325 326 324 320 320 322 323 323 318 313 315 316 317 318 317 318
317 318 319 321 321 321 321 321 321 321 321 318 311 309 311 310 310 310 311 312 312 311 311 312 312 311 311 312 311 310 310 311 312 315 314 314 315 313 314 313 312 315 309 311 320 313 310 315 314 315 320 320 320 316 311 315 320 313 307 312 316 317 320 322 324 324 323 323 323 321 319 318 323 329 329 321 320 323 323 322 317 311 315 317 317 319 318 319
314 316 318 319 320 319 319 320 321 321 321 319 311 309 311 310 310 310 310 310 311 312 310 310 311 311 312 313 312 310 310 311 312 314 313 313 314 312 313 312 311 316 316 313 318 314 309 309 310 313 316 315 314 310 306 312 313 308 314 321 320 321 322 323 325 322 325 326 321 320 320 317 320 329 328 320 321 327 324 323 321 314 316 318 318 319 319 319
311 313 315 317 318 319 319 319 320 321 322 319 312 310 311 311 311 310 310 309 309 311 311 311 311 312 313 314 314 312 311 311 312 314 314 314 314 313 313 313 314 321 323 318 318 314 310 313 313 312 311 310 313 312 308 307 307 312 326 327 321 324 322 322 324 322 326 326 318 316 317 316 319 326 327 320 321 324 320 323 328 320 316 318 318 319 319 319
309 310 312 315 317 318 318 318 319 320 321 320 314 311 311 311 311 310 309 308 310 313 314 314 312 313 313 313 314 314 313 314 312 313 317 316 316 315 315 316 316 319 320 317 318 315 315 318 314 310 310 311 318 320 313 311 311 318 327 324 320 324 322 322 325 324 325 320 313 313 316 317 318 319 320 319 319 320 314 314 319 316 315 318 318 318 318 318
307 309 310 313 315 316 317 317 318 318 319 319 314 312 313 313 313 312 310 310 312 312 312 315 314 314 313 313 314 313 313 315 313 313 315 315 316 316 317 318 316 317 318 316 316 317 318 318 313 312 313 312 317 320 318 317 317 319 323 322 323 323 321 324 325 320 320 316 310 310 315 319 319 319 319 318 316 316 313 311 312 312 314 317 317 317 318 318
306 307 309 311 313 315 316 316 317 317 318 317 313 312 313 315 316 314 312 310 312 313 313 315 314 313 313 314 316 313 313 314 313 314 315 315 317 317 318 317 313 318 323 317 315 317 318 318 316 315 315 314 315 316 319 320 317 318 320 320 322 324 323 324 326 323 321 321 314 309 315 324 324 321 320 314 310 312 312 313 313 312 314 315 315 317 317 318
306 306 307 308 311 313 315 316 316 316 317 314 312 312 313 315 317 316 314 310 313 317 315 314 315 314 314 315 316 313 312 314 313 314 316 316 318 317 318 317 312 317 322 316 315 316 315 318 319 313 311 313 314 313 316 318 316 316 318 319 320 322 322 318 317 319 320 321 320 314 318 323 321 320 316 311 311 312 311 311 312 313 315 314 314 317 317 318
305 305 306 306 308 310 313 316 316 316 316 312 311 312 313 314 314 315 314 310 313 318 315 315 317 317 315 315 316 313 311 314 314 315 316 315 317 317 316 316 313 313 314 313 317 318 315 318 316 311 311 311 312 312 312 314 316 316 317 320 317 316 323 322 312 310 312 316 320 319 320 320 317 317 317 315 317 317 313 311 311 312 315 314 315 317 318 318
304 305 305 305 306 308 311 313 315 316 314 311 311 313 312 311 311 312 313 310 311 315 314 315 316 317 316 315 316 315 313 315 315 315 317 315 317 317 315 316 313 312 312 311 316 319 318 319 314 312 314 311 308 310 310 309 313 318 319 319 314 312 320 325 319 318 318 319 322 322 319 317 318 318 319 319 319 318 318 315 312 311 313 314 315 317 317 318
303 303 304 305 305 306 308 311 314 315 312 310 312 313 312 311 311 311 311 310 311 313 314 315 314 315 317 316 316 316 313 315 315 315 316 314 316 317 315 316 314 311 312 310 313 317 316 317 316 311 314 312 308 312 314 310 309 315 318 315 317 320 321 320 320 323 323 322 327 327 319 316 318 319 319 319 323 326 322 318 317 314 311 312 315 317 318 319
301 302 303 305 306 305 306 309 313 313 311 311 312 313 312 312 311 310 311 311 312 312 312 313 312 313 317 316 316 316 313 315 315 314 316 314 315 315 313 315 314 311 311 310 313 317 314 315 317 311 310 312 312 314 318 316 311 311 313 312 316 322 322 320 319 320 321 321 325 327 321 319 319 321 321 318 323 331 328 326 327 318 311 313 317 318 319 319
301 302 304 306 307 306 305 309 312 312 311 312 312 312 312 311 310 310 312 311 312 313 313 313 312 312 316 315 315 316 315 315 314 314 315 314 315 315 312 313 315 313 311 309 312 316 314 314 316 313 310 313 317 316 316 317 315 314 316 316 316 317 319 320 318 318 322 324 326 325 320 318 319 320 322 319 321 324 327 333 329 316 312 317 319 318 319 318
302 303 304 306 307 307 307 311 312 311 311 312 312 312 312 311 310 310 311 311 312 312 313 314 313 312 315 315 314 316 316 315 314 314 316 314 314 316 314 312 315 315 312 311 313 315 315 315 318 317 314 315 318 315 312 315 316 315 316 317 316 316 317 318 317 317 319 322 323 323 320 319 320 321 321 322 323 317 316 321 319 314 315 318 318 319 319 319
302 302 303 306 308 308 310 313 312 310 311 312 312 312 312 311 311 311 310 310 311 311 311 314 314 314 316 315 314 315 316 316 314 314 316 315 313 315 315 311 312 313 312 313 314 313 314 317 319 320 319 317 314 309 305 309 315 316 316 316 316 316 316 317 319 318 318 317 316 318 321 320 319 325 324 320 318 312 309 310 311 314 318 318 318 319 319 319
302 302 303 306 309 309 311 313 312 311 311 311 311 312 311 311 311 311 310 310 311 312 312 313 314 314 315 315 314 315 315 315 315 314 316 316 314 313 312 311 311 312 312 316 316 313 313 317 317 319 322 321 316 310 305 307 313 316 316 316 316 315 315 318 319 318 318 319 317 318 321 319 318 323 316 308 308 308 309 310 309 313 317 318 318 318 318 319
301 301 302 304 308 310 310 311 312 312 311 311 311 311 311 311 311 311 311 311 311 312 312 312 313 314 314 314 314 316 316 315 315 315 315 316 316 312 310 311 312 312 312 315 316 313 314 318 317 317 321 321 318 316 313 311 313 316 318 316 314 315 316 317 317 316 317 321 321 320 320 319 320 321 311 307 311 310 307 310 311 312 316 317 317 318 318 318
301 301 300 301 304 307 308 308 310 311 311 311 311 311 311 311 311 311 311 311 310 311 312 312 312 313 314 314 314 316 316 315 316 316 315 317 317 311 310 311 311 311 312 313 313 312 315 318 316 315 317 317 317 318 318 316 314 314 319 319 315 315 317 317 316 316 317 320 320 318 318 316 319 320 317 317 320 316 311 311 311 313 315 316 317 317 317 318
301 301 301 301 301 302 304 305 305 307 310 310 310 311 311 311 311 310 311 311 310 310 311 313 313 312 313 314 314 315 315 315 317 316 316 318 318 313 310 311 310 311 312 312 311 314 319 318 314 315 317 316 315 316 318 320 317 316 318 318 315 314 315 316 317 317 318 318 317 317 316 317 317 319 323 324 322 323 319 311 310 314 315 315 318 318 317 317
300 301 301 302 302 302 303 303 304 306 308 309 310 310 310 311 311 311 311 311 311 311 311 312 312 313 314 314 314 315 315 315 315 316 316 317 317 314 310 309 310 311 312 312 311 315 320 319 315 316 316 315 316 315 317 320 318 317 317 316 315 314 314 316 317 317 317 317 317 317 316 317 316 315 321 326 325 326 320 310 310 314 315 316 317 317 317 318
300 301 301 302 303 303 303 303 303 305 306 308 309 310 310 310 310 311 311 311 311 311 312 312 312 313 314 314 314 315 315 315 315 314 315 315 315 314 313 312 311 310 310 312 311 314 319 318 316 317 316 315 315 315 317 319 317 316 317 316 315 314 313 315 316 316 317 317 317 317 316 317 316 314 316 319 320 320 318 314 314 314 315 316 317 317 318 318
299 300 301 302 302 303 303 303 303 304 305 306 307 308 309 310 310 310 311 311 311 311 311 313 313 312 313 313 314 314 315 315 315 314 314 314 314 314 315 315 313 310 310 312 312 313 316 317 317 317 317 316 316 315 317 318 316 316 316 315 315 314 313 315 315 315 316 317 316 317 317 316 315 315 315 314 314 314 314 314 314 314 315 317 317 317 317 318
299 299 300 301 301 301 301 302 303 305 305 305 305 306 307 309 310 310 310 311 311 311 311 312 313 312 313 313 313 314 314 314 315 315 314 314 314 314 314 315 315 312 310 312 314 313 313 316 318 317 316 317 316 316 316 316 315 316 315 315 315 314 313 314 315 315 315 316 316 316 317 317 314 314 315 313 313 313 314 313 313 314 317 317 317 317 317 317
299 299 300 300 301 301 301 301 301 303 304 305 306 306 306 307 308 309 310 310 310 311 311 311 312 312 312 312 313 313 313 313 314 314 314 314 314 314 314 314 315 315 313 313 315 315 314 315 317 316 316 317 317 317 317 315 314 314 315 316 316 315 314 313 313 315 315 316 316 316 316 316 315 315 314 313 313 312 311 312 313 315 317 317 317 317 317 317
298 299 299 300 300 301 301 301 302 302 302 303 305 305 306 306 307 308 309 309 309 310 311 311 311 312 312 312 312 312 312 312 313 313 313 313 313 313 314 313 313 316 318 315 315 316 315 315 315 315 316 318 317 317 316 315 316 316 315 316 316 314 313 313 313 314 314 315 316 316 316 315 317 319 318 318 317 314 311 312 314 315 316 316 317 316 316 317
Wind_Speed
15 14 13 12 12 11 10 10 10 10 9 9 10 10 10 10 10 10 10 10 10 9 9 9 8 6 4 3 3 3 3 3 2 1 1 2 3 2 2 2 2 2 2 2 2 3 1 0 0 2 4 6 6 7 7 6 5 4 3 3 2 3 4 6 8 7 4 2 7 10 12 9 3 7 7 4 5 5 6 9 10 10 11 10 8 6 5 9
16 15 14 12 12 11 11 10 10 9 9 10 10 10 11 11 11 11 11 10 10 10 9 9 8 6 4 3 3 3 3 3 2 2 1 2 3 3 2 2 2 2 2 3 3 3 2 1 0 1 3 4 4 5 6 4 4 3 3 3 3 6 4 5 10 10 3 1 9 11 11 10 4 7 9 4 3 5 5 9 11 12 13 13 11 10 9 9
16 15 14 13 12 12 11 10 10 10 10 10 10 11 11 11 11 11 11 10 10 10 10 9 8 6 4 4 4 3 3 3 2 2 3 3 4 4 3 3 2 2 2 2 1 2 2 1 0 1 3 4 4 4 4 3 2 2 4 2 4 7 3 4 11 11 3 2 9 11 9 8 5 8 9 5 2 3 7 10 12 15 15 13 12 11 10 11
16 15 14 13 13 12 11 11 10 10 10 10 10 11 11 11 11 11 11 11 11 10 10 10 8 6 5 4 3 3 2 2 3 3 4 4 5 5 4 3 2 1 1 1 1 1 2 2 2 2 4 4 3 4 3 4 1 2 4 3 4 5 2 3 10 8 5 2 7 11 8 6 6 8 9 6 2 4 11 15 15 15 14 11 11 11 11 12
16 15 14 14 13 13 12 11 11 10 10 11 11 11 11 11 11 11 11 10 10 10 10 9 7 6 5 4 4 3 1 1 1 4 4 5 6 6 5 4 3 1 1 0 1 2 3 4 3 4 4 3 3 3 3 4 5 4 1 1 2 5 2 2 6 5 7 5 7 10 8 6 7 8 10 9 5 7 10 11 11 13 13 11 10 10 12 13
14 14 14 14 13 13 12 12 11 11 11 11 11 11 11 11 12 11 10 10 10 10 10 8 7 6 5 4 4 4 2 1 1 3 4 5 7 8 7 5 3 2 1 1 2 3 4 4 4 4 3 3 3 3 2 2 3 3 2 1 4 4 3 2 3 3 7 7 9 10 9 8 8 6 9 13 15 16 11 7 6 7 10 12 12 12 12 13
13 13 13 13 12 12 12 12 11 11 11 11 11 11 11 12 12 11 11 10 10 10 9 7 6 5 5 5 4 4 3 1 1 3 4 8 10 10 8 5 3 2 1 2 2 3 4 4 5 5 5 3 2 3 4 3 2 3 1 2 4 1 2 2 2 4 6 5 8 9 9 7 7 6 6 15 22 20 17 15 11 8 7 10 12 14 14 13
13 12 12 12 12 11 11 11 11 11 11 11 11 11 11 11 11 11 11 10 10 10 8 7 6 5 5 5 5 4 3 2 2 5 7 11 12 10 8 5 3 2 2 2 2 4 4 4 8 7 4 3 3 2 3 4 4 4 2 3 4 1 1 2 3 5 5 3 7 7 7 5 5 4 7 18 22 18 18 19 17 16 14 13 13 14 15 15
12 11 11 11 11 10 10 10 10 10 10 10 10 10 11 10 11 11 11 10 10 9 8 7 6 5 5 5 4 3 3 3 3 7 10 13 12 10 7 4 3 3 3 3 3 4 3 6 8 5 4 4 5 3 3 3 1 2 4 4 4 3 2 3 3 4 4 4 6 5 2 2 3 3 9 19 20 17 19 20 19 20 19 19 18 17 17 17
10 10 11 10 10 10 10 9 9 10 10 10 10 10 10 10 9 10 10 10 9 8 8 7 6 6 5 5 4 2 3 4 5 9 12 13 12 9 6 3 1 2 3 4 4 3 4 6 6 6 7 7 6 4 4 3 2 3 5 7 5 3 3 2 2 3 3 3 3 4 2 1 2 0 7 12 10 10 13 16 19 20 20 21 20 19 19 19
10 10 10 10 10 9 9 9 9 9 10 10 10 9 9 10 9 9 10 10 9 8 8 7 6 6 5 5 5 3 2 4 8 10 12 12 10 8 5 3 0 1 2 4 4 4 5 6 7 7 5 5 6 5 5 5 5 4 5 5 5 5 2 1 1 2 2 1 0 2 1 2 3 2 11 12 9 10 11 12 14 16 18 19 20 20 20 21
9 9 10 10 9 8 8 8 9 9 9 9 10 10 10 10 10 10 10 9 9 8 8 7 6 6 6 6 7 5 1 3 9 11 12 12 10 7 5 2 1 0 2 4 5 5 5 6 6 5 5 8 6 4 5 5 4 5 5 2 5 8 3 4 2 0 1 1 0 2 2 4 3 9 17 14 12 15 15 16 16 16 17 17 19 20 21 22
9 9 9 9 9 9 8 8 8 8 9 9 10 10 10 10 10 10 10 9 8 8 7 7 6 6 5 4 6 7 5 4 8 11 12 11 9 6 4 3 2 2 3 4 5 5 4 4 4 6 9 9 5 5 6 4 4 3 5 2 3 7 4 4 4 2 1 2 2 4 2 6 7 15 18 14 14 15 16 18 17 17 17 17 18 20 21 21
9 9 8 9 9 9 8 8 8 8 8 8 9 9 9 9 9 9 9 8 8 7 7 6 6 5 5 4 3 5 7 6 8 11 12 11 9 6 4 3 3 3 4 4 5 5 5 5 5 8 9 8 8 9 5 5 4 1 2 2 2 1 4 5 4 1 2 3 4 5 2 6 8 13 11 12 15 15 17 19 17 18 17 17 18 18 20 20
9 9 9 8 8 8 8 8 7 7 7 7 7 7 7 7 7 7 7 7 7 6 6 6 5 4 4 4 5 6 7 7 9 11 12 11 9 6 4 4 5 4 4 4 4 4 5 5 5 8 8 9 10 7 3 4 4 3 1 2 3 1 4 7 3 2 2 2 4 5 2 6 10 12 8 8 11 12 16 18 18 19 18 18 17 17 19 19
8 8 9 9 9 8 8 7 7 7 7 6 6 6 6 6 5 5 6 6 6 6 5 5 5 5 2 3 5 6 8 10 10 12 13 12 10 7 5 5 5 4 4 3 3 4 4 4 7 8 7 7 6 4 4 3 4 4 1 2 1 1 3 5 2 1 1 0 2 2 2 3 5 7 3 3 6 7 12 16 17 17 17 17 16 17 19 19
7 8 9 9 9 9 8 8 7 7 7 6 6 5 5 5 5 4 5 5 5 5 5 4 4 4 3 4 6 7 10 12 12 13 13 12 11 8 7 6 5 4 3 4 3 4 4 4 6 6 4 3 3 4 4 2 3 3 3 1 3 2 2 3 2 1 2 2 2 2 2 7 8 10 12 11 11 10 13 18 19 18 19 19 19 21 23 23
5 7 8 9 9 9 9 8 8 7 6 6 5 5 5 5 4 4 4 4 4 3 3 4 4 2 5 8 8 8 11 12 13 14 14 13 12 9 8 7 5 5 4 4 3 3 4 4 5 3 3 3 2 5 3 4 4 3 2 1 2 2 2 3 3 1 1 1 3 2 4 11 12 15 24 26 18 16 20 24 25 26 27 28 28 29 29 28
3 5 7 8 9 9 9 9 8 7 6 6 5 5 5 4 3 3 4 5 6 4 2 7 10 4 2 9 11 8 8 11 13 14 15 14 13 12 9 7 6 6 5 4 2 3 4 4 5 2 1 2 4 5 6 7 6 6 5 4 3 3 3 5 5 3 0 1 4 6 7 11 11 12 20 27 20 17 23 26 28 30 31 32 33 33 32 32
5 5 4 7 9 9 9 8 9 8 7 6 5 5 5 5 3 1 5 8 10 9 3 6 12 7 2 2 9 11 7 9 13 14 15 15 15 13 10 7 6 4 3 3 2 2 4 3 2 5 6 7 7 6 6 5 6 7 5 4 3 4 4 4 4 5 0 2 6 6 7 11 12 10 16 27 22 17 23 25 29 33 34 36 35 35 35 35
5 7 6 6 7 8 8 8 8 8 8 7 6 5 5 6 3 1 4 6 10 14 10 6 9 11 5 1 4 9 9 8 11 15 16 16 15 12 9 7 5 3 0 2 4 2 5 4 6 8 8 7 6 7 8 6 6 5 5 3 1 3 5 5 2 4 1 2 4 2 5 12 13 11 16 22 17 17 25 25 29 35 37 38 38 39 39 37
5 6 7 8 8 7 7 7 7 8 8 7 8 6 4 5 4 0 0 2 6 11 14 14 12 13 13 8 5 7 9 7 9 15 16 17 17 12 9 7 5 3 1 3 5 3 3 4 9 7 9 8 5 6 7 6 6 4 3 2 2 3 4 5 2 4 1 2 4 3 4 12 13 12 16 20 18 23 32 31 33 36 36 38 39 39 39 39
7 6 6 8 10 10 8 6 6 7 8 8 7 7 5 4 3 2 2 2 5 7 11 16 18 18 17 14 11 9 10 6 7 15 18 18 17 13 11 8 4 4 2 3 5 3 2 6 7 8 13 10 6 4 7 6 3 2 4 3 3 3 1 3 3 3 1 1 3 2 4 9 12 11 14 17 19 24 32 35 37 39 38 42 43 40 40 41
11 8 7 6 8 12 10 6 5 6 8 9 7 7 7 5 4 2 1 1 4 6 9 12 15 19 21 18 14 12 12 9 8 13 19 20 17 12 10 8 6 4 4 5 7 6 5 5 1 7 8 8 7 4 7 5 2 2 4 5 4 4 4 5 3 3 2 2 2 2 5 6 7 7 8 8 8 15 24 26 31 35 35 38 39 37 37 36
14 12 10 7 7 11 11 8 5 4 7 8 7 9 8 6 4 2 1 2 3 4 6 10 11 15 20 19 16 13 10 11 11 12 17 22 20 11 6 7 6 4 6 6 7 4 6 3 7 7 4 6 8 4 5 7 3 3 4 8 9 6 5 4 3 5 4 4 3 3 3 5 5 7 8 6 5 11 15 16 24 32 30 31 33 34 34 33
16 15 14 11 9 11 11 9 5 3 3 5 9 11 9 7 5 3 3 4 3 4 2 7 7 9 14 15 17 13 4 8 14 15 17 22 21 12 6 5 3 3 6 7 4 3 3 2 5 6 5 6 6 2 6 7 5 1 4 7 8 5 4 3 0 2 1 3 3 3 0 4 7 10 10 6 7 12 13 13 22 30 30 31 33 32 32 30
14 16 16 15 13 11 10 8 6 4 1 3 7 10 10 9 8 5 4 4 4 5 6 7 8 9 11 13 20 16 2 5 11 14 19 21 19 12 6 4 2 2 6 6 2 2 3 4 4 6 6 6 5 3 6 8 8 2 4 4 6 6 6 5 4 2 3 2 4 3 2 3 6 9 7 3 6 10 11 13 18 23 26 25 23 21 20 18
16 14 15 18 17 14 12 11 9 5 2 2 4 10 11 12 12 7 5 1 3 5 5 6 9 11 12 16 23 14 5 8 8 10 20 21 18 10 5 7 6 4 5 6 4 3 3 6 6 6 5 4 5 4 7 11 6 4 3 6 6 6 5 4 5 2 1 3 4 1 3 2 6 7 5 3 5 8 10 14 15 17 19 16 12 10 7 6
16 14 14 16 17 16 16 15 13 10 6 2 3 11 14 15 12 6 4 1 2 3 3 6 9 9 12 17 17 8 6 6 2 8 18 17 15 7 2 8 7 5 2 2 4 3 1 3 7 8 5 5 4 2 5 8 4 4 6 7 6 5 5 5 4 3 2 3 4 5 5 3 6 6 3 1 3 7 10 12 11 15 17 11 6 3 2 3
15 15 15 15 14 15 16 17 17 15 10 3 5 15 19 15 8 5 2 3 2 2 3 6 7 9 14 12 5 1 4 2 5 12 12 9 10 5 5 7 6 6 2 5 1 3 1 2 2 4 4 5 6 4 3 3 7 10 7 6 7 6 5 3 2 4 2 4 4 6 8 4 4 6 4 4 5 7 8 9 9 13 14 7 2 2 4 3
13 14 15 14 15 15 16 18 18 18 15 7 9 19 19 9 3 4 5 1 1 2 3 3 3 7 14 10 3 3 3 3 6 12 7 4 6 4 6 6 3 4 3 4 2 3 3 1 1 3 5 8 9 6 6 6 7 8 4 5 4 3 4 4 4 4 1 4 3 3 2 2 6 7 4 5 6 7 8 8 8 9 12 8 3 3 4 4
12 13 14 14 15 15 17 18 16 17 17 13 15 21 13 4 0 4 5 2 1 3 4 3 2 5 9 6 3 5 4 2 5 7 5 4 5 5 4 5 5 2 2 5 3 3 2 4 2 2 5 8 7 5 5 4 3 4 4 6 4 2 3 3 3 0 3 5 3 3 1 2 8 9 10 11 12 11 11 13 14 14 18 17 12 11 12 13
12 12 12 14 16 15 16 17 15 15 17 16 18 14 4 3 6 9 8 3 1 2 2 3 2 4 8 6 3 4 3 2 5 4 2 4 4 5 4 3 6 3 2 5 2 0 3 5 1 3 3 8 9 6 3 1 2 4 5 6 4 2 1 3 3 1 4 4 2 3 2 3 5 6 12 17 17 18 20 23 24 22 25 27 26 24 23 22
12 12 12 14 16 17 16 16 15 14 16 15 16 8 2 6 8 11 13 7 1 1 2 3 5 5 7 4 3 5 3 3 6 5 3 5 5 5 5 5 5 2 3 3 2 6 5 6 5 6 4 11 12 7 7 7 5 5 4 5 5 5 5 5 3 3 5 2 2 3 1 4 4 3 8 13 16 19 23 27 27 27 32 32 32 32 27 23
12 13 14 14 15 17 18 17 16 16 15 13 13 4 5 7 3 6 10 5 1 2 3 2 6 5 4 2 3 4 3 2 4 4 3 5 5 7 6 7 8 5 5 4 2 4 4 7 6 2 2 13 12 6 8 8 3 3 3 4 4 5 5 2 3 5 2 2 2 2 4 5 5 6 10 11 13 15 18 21 22 27 31 29 30 29 22 18
12 14 15 14 14 15 17 18 15 16 16 16 9 3 7 5 2 3 3 1 2 4 4 2 4 5 4 2 2 4 1 1 4 4 2 3 3 5 6 6 11 11 9 7 3 2 2 5 5 4 1 6 5 3 6 5 3 2 3 4 4 4 7 4 2 1 3 2 3 1 5 6 3 7 11 9 9 11 11 14 17 22 23 21 24 22 18 17
13 13 15 16 15 13 15 18 15 16 19 16 5 6 5 2 4 5 2 0 1 3 6 3 1 4 5 3 3 5 2 1 3 3 3 3 3 6 6 5 9 14 15 11 4 3 5 3 5 2 1 3 1 3 3 3 4 5 4 6 3 2 4 4 2 2 3 3 4 1 6 6 3 5 6 3 7 11 11 11 15 19 18 20 25 23 19 17
13 14 16 18 16 13 14 17 16 18 18 11 4 8 4 4 9 9 4 4 2 1 3 4 3 4 5 5 4 5 4 2 4 4 3 3 4 8 9 5 8 17 22 15 4 2 4 3 5 1 2 3 2 3 2 4 3 4 4 4 4 3 2 2 3 2 1 3 4 4 5 4 5 6 3 3 8 11 11 11 10 14 18 24 28 24 16 10
11 11 12 11 12 15 14 15 20 22 13 5 6 8 5 6 10 10 8 6 4 3 4 5 3 1 3 6 4 4 5 5 7 6 4 4 5 6 12 10 8 15 22 17 6 2 3 3 4 2 2 1 2 2 5 1 2 3 2 3 2 2 4 3 3 4 4 4 3 4 4 4 7 7 6 10 11 10 10 8 7 12 19 20 17 12 8 7
6 5 5 4 5 11 15 18 22 20 8 3 7 5 3 4 7 12 15 10 4 4 4 4 4 4 3 4 2 3 6 5 7 6 4 5 5 4 9 11 4 5 14 16 8 0 3 3 4 3 3 1 2 5 8 9 6 3 3 4 2 1 2 1 1 2 4 4 3 2 4 7 7 5 8 12 11 9 9 7 7 11 14 13 10 10 7 5
3 2 2 5 7 12 22 21 15 10 3 4 7 5 3 4 5 13 17 11 5 4 3 2 4 5 5 4 3 4 5 4 6 6 3 5 7 4 8 15 9 7 7 8 7 4 3 3 4 2 1 3 4 4 4 8 9 8 8 8 9 7 4 3 4 2 3 3 4 4 3 9 7 5 8 10 7 8 9 9 9 9 9 10 13 13 9 6
6 3 2 7 9 18 25 15 7 7 4 6 10 8 4 5 4 9 12 9 6 3 2 2 3 4 4 4 4 4 5 4 6 6 4 7 10 7 8 16 19 18 13 6 7 7 4 3 3 3 5 6 4 2 1 3 4 4 5 6 7 7 7 6 6 4 2 1 2 3 1 9 8 6 7 8 6 7 9 10 12 12 12 13 14 14 10 8
7 6 6 9 11 23 24 8 4 7 4 9 13 8 4 4 3 7 9 9 7 5 4 3 2 4 4 2 3 4 5 5 6 8 7 6 10 11 9 14 19 18 11 3 2 4 4 3 3 2 3 3 4 3 2 1 2 3 6 5 4 5 6 5 3 4 4 3 3 2 3 10 8 3 4 7 6 9 13 13 14 18 17 16 18 18 12 9
6 8 10 8 12 22 19 6 5 8 6 9 9 5 6 7 5 7 7 9 9 5 4 4 4 6 5 1 2 4 6 5 5 8 8 4 6 8 9 17 18 12 9 8 7 11 7 3 5 3 2 4 4 3 2 2 2 4 5 4 5 6 6 4 1 2 2 5 8 5 6 10 7 2 1 5 6 9 15 16 16 19 20 18 18 19 17 13
4 7 12 14 16 17 12 5 4 5 7 9 7 7 9 6 7 13 12 10 11 8 4 6 7 7 4 2 1 2 4 5 4 5 6 4 3 2 7 19 20 14 13 11 10 14 10 4 7 8 7 8 6 6 6 4 3 2 3 6 9 10 11 6 3 4 4 8 8 6 8 12 9 5 4 6 4 6 14 17 16 19 23 21 18 18 19 16
5 4 6 12 17 17 16 13 7 3 5 9 7 7 10 7 5 14 15 10 12 13 8 6 7 6 4 4 4 3 5 6 3 3 4 5 3 1 3 13 19 21 20 12 8 10 4 3 9 12 12 13 12 12 6 6 6 7 10 13 12 13 14 10 5 6 9 10 8 9 12 16 16 9 5 7 7 6 11 13 15 21 24 23 23 23 21 16
6 4 5 5 7 9 12 14 11 5 4 7 5 5 11 12 5 8 13 11 13 15 10 4 6 7 7 9 8 7 9 8 5 5 7 6 5 3 2 4 12 22 20 11 11 9 2 3 10 14 16 16 15 15 8 9 11 15 17 16 14 13 14 13 11 13 13 10 11 16 16 16 21 17 10 9 8 7 8 12 18 22 22 23 24 23 21 20
9 5 9 10 4 3 7 10 10 9 6 6 4 3 8 12 9 7 10 10 13 16 10 5 8 11 11 12 9 7 9 9 8 10 10 8 6 4 3 2 8 16 14 7 9 8 2 5 9 11 15 17 17 14 8 9 11 12 16 18 17 15 16 17 18 20 18 13 14 19 17 17 22 21 15 12 9 10 13 17 21 20 18 20 23 24 25 26
13 7 8 10 5 1 3 4 5 7 8 7 5 4 5 8 10 9 7 5 7 11 12 9 10 14 14 12 10 9 9 8 8 10 9 9 8 5 5 6 6 8 8 6 5 3 2 6 9 9 12 15 17 15 8 10 9 8 11 14 14 17 19 21 22 25 25 20 17 18 19 22 22 17 12 13 18 22 21 17 16 15 16 19 23 27 28 28
16 10 7 6 4 3 2 2 3 2 5 6 6 6 7 8 9 7 6 8 6 6 13 15 13 12 13 13 13 12 12 11 11 11 10 9 9 6 6 7 5 2 3 4 2 1 2 5 6 6 7 10 14 16 11 8 8 8 6 6 9 14 18 22 23 22 20 18 18 18 21 22 16 9 10 15 21 23 18 16 18 18 20 24 27 30 30 29
18 14 11 6 3 6 5 3 2 1 1 4 5 7 9 10 11 7 5 11 12 7 9 15 16 12 11 14 15 15 16 17 16 18 17 15 15 13 9 8 6 3 2 3 2 1 2 3 2 2 6 9 13 17 12 3 3 7 6 6 12 15 16 18 16 14 14 16 18 17 18 19 9 5 9 14 16 16 16 20 25 27 29 32 33 34 35 34
23 17 14 8 3 6 6 3 3 4 5 6 6 7 7 8 9 8 6 9 15 17 15 14 13 10 9 13 17 21 28 29 28 31 30 25 23 20 13 11 10 8 5 4 3 3 4 3 2 3 5 9 15 15 6 2 2 7 10 15 20 19 15 11 9 14 17 16 14 13 16 19 10 6 8 11 10 12 17 23 27 31 35 38 39 39 38 37
Wind_Direction
193 195 197 196 197 200 200 203 204 204 204 204 203 201 200 197 196 193 192 191 192 193 193 194 193 194 195 198 208 201 190 184 173 170 116 159 167 160 162 158 169 185 221 250 256 250 270 309 178 127 138 133 130 136 128 123 128 124 98 99 157 177 196 189 179 185 164 193 193 179 182 178 179 186 182 192 210 228 226 219 217 216 223 229 224 223 241 214
193 194 197 198 201 203 203 206 208 211 211 209 208 206 204 200 197 194 192 192 193 194 195 196 197 200 204 204 214 210 197 200 203 202 188 186 189 191 195 192 209 225 243 265 254 240 244 257 225 146 156 140 116 129 134 112 108 97 98 119 202 196 201 192 179 180 148 109 179 172 181 185 188 182 183 203 225 223 230 233 227 229 233 235 238 234 241 226
195 195 197 200 204 205 206 210 212 215 216 213 212 209 206 202 199 196 193 193 193 194 195 196 199 206 206 211 221 210 209 228 224 224 215 198 194 200 215 216 220 235 249 272 241 229 221 183 56 157 145 122 99 121 121 74 96 78 104 147 239 206 205 198 182 182 163 97 164 168 177 184 191 183 185 204 231 227 229 234 228 232 238 239 243 237 236 227
199 199 199 201 205 208 210 212 216 218 218 216 213 211 208 204 201 198 195 194 194 194 194 194 199 206 209 217 219 207 242 265 225 217 206 192 193 199 204 192 190 220 239 264 211 192 184 158 117 135 122 106 83 105 80 35 102 101 112 172 233 186 155 183 185 195 197 160 165 170 166 175 189 186 193 191 186 253 240 239 239 244 249 248 251 246 239 228
206 206 205 205 207 210 213 214 217 218 218 216 213 211 208 205 202 200 197 196 197 194 192 194 200 206 210 215 211 206 198 38 210 209 197 190 187 184 170 156 153 158 161 113 175 162 166 161 143 132 109 90 58 79 47 38 98 95 56 230 168 141 97 157 178 203 203 183 168 168 164 179 182 188 206 196 197 240 246 253 255 259 257 251 256 254 243 230
217 216 213 212 210 212 216 217 218 217 216 215 213 211 208 206 204 201 200 199 199 195 192 195 202 207 210 213 212 208 180 76 218 195 186 184 171 162 149 139 131 126 143 106 119 150 162 159 152 139 103 71 43 72 71 55 114 103 349 223 146 116 68 123 164 183 186 183 175 174 179 181 173 193 218 216 228 239 246 262 266 270 258 247 250 251 246 236
222 225 223 219 216 217 219 220 220 216 214 214 213 211 208 207 205 203 201 200 200 195 192 198 207 209 211 213 210 218 229 277 242 186 172 164 157 153 143 130 126 109 97 107 115 139 144 157 158 132 99 77 95 90 63 63 103 110 99 185 164 86 31 93 122 149 159 190 188 178 181 181 181 199 228 233 239 244 250 256 255 260 260 251 249 250 252 247
220 225 226 223 222 223 222 222 219 216 213 211 211 209 207 207 207 204 201 200 198 193 194 203 208 209 211 214 213 230 245 257 195 178 168 160 156 153 149 129 112 87 73 93 122 134 124 151 157 138 101 85 132 122 63 79 54 68 132 191 165 85 27 97 99 133 131 167 176 169 174 184 207 222 249 249 250 252 253 257 257 255 256 256 255 255 257 252
212 219 221 223 225 225 223 220 215 212 209 206 205 204 204 205 205 204 200 197 192 192 199 205 210 213 214 212 214 233 229 210 179 172 167 164 163 160 157 137 102 76 75 100 127 140 130 148 157 154 147 128 118 86 59 98 29 48 132 149 130 81 92 124 117 126 127 148 165 179 183 188 227 266 265 258 260 257 253 254 255 256 255 256 257 258 257 256
202 209 213 216 218 219 218 214 210 205 201 200 198 197 197 196 197 197 193 189 188 193 201 206 209 212 217 214 208 206 208 196 176 172 172 171 171 171 168 158 101 59 79 104 112 131 136 145 150 138 133 125 106 66 43 83 127 110 110 113 91 64 91 131 155 137 138 136 158 203 221 226 190 237 258 254 258 253 251 252 252 253 255 256 258 257 255 254
197 201 204 206 207 210 210 207 204 199 196 196 192 191 189 186 185 184 185 186 189 196 202 206 208 213 220 215 202 187 186 194 181 175 177 179 179 180 186 196 244 42 101 120 116 119 120 127 141 137 124 123 108 69 67 89 106 98 108 113 30 17 57 34 147 151 153 127 15 218 258 262 142 175 246 246 249 255 258 256 254 253 254 256 257 256 253 251
196 196 197 198 199 200 200 198 197 196 195 192 190 189 186 184 182 181 183 187 192 199 203 207 209 218 222 224 222 213 202 186 185 182 183 185 185 188 202 220 256 86 114 130 129 116 109 118 135 140 125 138 129 74 93 94 94 85 89 138 341 4 6 336 350 237 158 141 97 96 310 279 199 230 248 252 254 258 260 259 259 257 256 256 257 257 255 253
197 196 196 195 194 193 193 193 192 193 193 191 190 188 186 186 184 182 184 187 193 198 204 210 214 223 226 232 235 227 231 211 191 190 189 191 190 194 212 227 228 164 129 132 133 118 113 112 117 128 127 133 132 121 123 87 93 93 59 92 351 7 342 328 356 336 177 176 160 124 272 272 249 245 247 255 258 257 258 258 260 260 260 258 256 258 257 255
199 200 201 198 197 196 194 194 194 193 192 191 189 188 189 187 185 186 187 189 193 198 206 212 216 224 224 226 238 227 224 216 201 197 194 197 197 198 219 219 188 153 133 123 126 122 110 102 109 121 119 120 127 127 112 39 61 87 18 43 38 25 279 309 350 340 169 204 178 136 245 266 270 265 257 264 263 256 256 257 260 261 260 260 259 259 259 257
202 203 205 206 205 203 200 198 199 197 194 193 191 190 189 188 188 188 189 192 194 200 206 210 212 211 219 228 233 229 219 214 207 202 199 200 202 207 210 192 171 152 138 129 125 118 109 113 116 106 102 116 125 114 42 9 31 32 52 326 0 137 268 309 339 148 153 228 173 139 244 271 274 274 280 284 268 253 255 260 263 263 263 262 261 261 262 261
205 205 208 211 210 208 205 201 201 202 198 195 193 191 189 188 189 191 196 197 196 202 201 204 206 198 209 227 219 222 217 215 207 201 204 202 203 207 201 188 171 153 142 135 122 121 129 124 104 94 102 121 119 89 47 23 353 1 77 211 257 141 284 318 350 175 50 58 193 174 237 272 280 267 276 334 301 272 265 269 269 266 265 262 262 266 269 269
208 209 211 212 212 210 206 204 204 203 202 201 197 195 192 188 187 191 198 199 200 200 192 190 189 197 235 228 217 221 212 209 206 202 203 202 203 203 198 191 176 171 160 143 136 131 133 121 111 100 85 88 90 89 74 350 297 320 27 132 226 197 224 297 317 304 33 75 231 247 230 248 267 270 269 285 300 295 282 280 279 276 273 268 268 271 272 272
220 219 220 216 215 212 207 208 208 205 203 201 197 194 192 189 190 188 196 204 195 178 187 190 158 158 242 223 212 217 211 207 202 200 200 200 201 198 198 194 184 188 168 148 143 121 113 99 103 98 37 35 70 101 130 219 205 194 173 138 248 238 219 255 271 280 45 53 243 247 255 256 265 275 274 276 283 283 279 280 280 279 276 274 273 272 271 269
286 245 233 229 223 215 210 208 209 209 205 201 194 185 179 173 173 187 203 202 183 159 169 199 182 143 215 214 209 208 206 202 198 198 198 197 196 195 193 190 189 183 160 157 143 94 104 81 79 111 184 208 197 157 169 194 158 150 167 144 164 210 250 241 246 273 179 213 260 239 245 259 265 274 275 276 280 279 277 278 276 275 274 273 272 270 269 268
319 312 274 250 237 224 214 209 211 208 203 205 192 175 165 150 132 196 215 210 205 198 190 193 194 188 72 142 204 204 194 190 194 195 194 194 192 189 184 178 175 157 138 160 164 80 93 103 160 202 207 200 199 166 144 149 121 116 121 113 156 199 267 257 255 296 137 190 263 243 252 269 267 268 271 275 282 280 273 272 272 272 271 270 270 270 269 268
291 306 312 294 262 240 223 214 218 212 204 206 193 178 169 159 126 58 204 219 227 220 223 221 206 212 225 29 184 196 191 185 192 193 192 191 186 183 182 167 143 136 224 118 118 70 88 148 225 222 199 182 171 138 118 106 86 91 118 125 237 217 253 254 243 310 357 183 270 309 290 275 267 267 267 270 276 272 266 264 266 268 269 269 269 269 269 269
258 276 299 306 297 271 238 219 220 220 213 206 194 183 176 175 175 152 199 263 254 235 233 236 232 228 230 236 224 194 189 185 196 196 190 185 183 186 180 154 129 157 208 91 104 42 60 217 244 202 148 115 96 114 112 103 89 80 113 125 272 247 267 284 312 329 20 180 273 352 310 276 274 271 265 260 252 258 263 261 263 265 267 268 268 268 270 271
246 256 271 290 303 295 267 229 216 221 220 212 199 190 185 179 190 248 328 316 278 257 240 237 237 236 232 234 233 213 198 196 200 197 193 187 185 186 173 149 124 141 151 174 158 126 143 251 254 171 144 111 78 95 101 98 95 99 133 141 253 254 270 284 297 318 355 173 278 327 301 278 276 272 267 261 247 254 262 261 262 263 262 265 266 268 269 271
236 245 254 262 287 293 285 260 226 217 219 215 206 201 205 200 193 240 321 356 299 264 242 240 237 236 234 232 231 219 209 216 215 199 197 191 180 177 175 152 119 132 182 189 160 164 216 251 177 134 137 116 108 120 120 133 215 257 174 172 222 229 210 237 283 321 320 2 359 334 305 285 283 281 277 279 260 255 261 261 262 262 261 264 266 267 268 270
229 236 252 251 258 276 284 282 263 234 224 212 201 202 206 203 189 206 128 44 317 279 251 239 235 239 232 227 224 211 206 222 224 208 200 195 183 167 158 150 141 173 192 153 132 195 247 215 132 113 90 106 118 154 176 162 183 282 229 203 214 212 204 237 327 5 359 341 343 9 313 283 304 290 266 282 300 274 269 266 265 267 266 265 266 268 269 271
231 230 242 249 248 254 268 281 283 277 244 209 206 201 195 186 164 158 120 54 307 258 206 207 215 226 218 211 202 189 207 239 222 210 198 196 191 172 144 143 140 183 169 138 133 215 233 152 122 121 122 119 118 186 220 169 134 291 249 209 207 181 166 209 317 18 310 270 296 42 59 276 305 288 268 276 288 280 283 278 269 270 270 268 268 271 273 274
242 230 232 240 246 247 254 267 280 304 318 223 215 195 182 167 148 148 119 30 293 208 161 178 183 193 198 190 182 178 204 207 193 200 192 189 193 184 172 165 105 176 160 133 162 239 167 134 88 107 111 114 136 211 225 158 130 234 248 156 156 157 177 191 155 187 239 270 316 37 121 257 286 277 278 311 292 285 289 283 275 273 275 276 278 281 280 278
247 237 230 232 240 246 248 253 263 274 285 295 213 182 169 155 145 132 110 25 260 156 149 178 173 184 185 176 179 175 136 149 154 190 186 182 188 182 186 194 167 171 168 144 195 251 158 167 180 149 113 135 181 224 196 152 132 245 209 118 132 148 155 139 126 169 322 354 305 271 133 253 266 268 300 341 293 284 280 274 274 280 285 290 294 292 285 268
238 239 237 234 238 240 239 241 246 248 248 293 169 169 157 150 148 111 90 205 207 129 150 169 165 179 165 164 183 177 127 140 103 170 174 175 184 175 164 194 162 131 139 125 184 237 87 174 190 154 136 191 203 287 188 161 145 176 141 97 83 81 82 86 103 117 52 333 255 196 169 228 268 270 295 332 259 257 264 266 270 282 288 296 301 274 208 203
231 234 236 237 236 232 233 234 235 237 232 223 169 163 152 149 140 96 136 220 195 125 140 160 173 172 152 150 197 199 110 71 92 136 152 162 174 152 115 154 134 111 47 9 100 233 338 91 174 160 164 172 134 64 41 108 132 139 121 78 64 41 44 54 49 80 62 292 258 201 188 194 271 271 233 212 222 213 232 260 276 280 277 276 300 214 188 198
228 226 225 231 232 231 234 233 232 230 220 204 171 161 151 141 105 138 194 228 33 144 126 152 181 155 155 156 177 171 95 44 131 139 138 145 156 130 113 134 104 79 2 326 304 308 341 95 225 189 160 129 105 67 37 67 118 120 92 87 84 357 15 26 353 51 112 253 264 246 214 176 244 259 245 241 254 230 221 242 261 270 259 237 206 225 236 249
233 224 219 218 222 231 235 235 238 232 224 214 182 168 155 126 95 213 208 70 48 205 160 174 194 152 165 159 143 163 128 101 165 156 146 145 159 171 166 175 164 106 293 241 246 330 279 229 253 144 165 155 122 76 45 26 43 82 95 109 98 340 0 347 304 98 227 247 254 246 223 219 242 261 271 263 260 249 234 233 238 249 256 255 256 259 265 270
237 227 222 209 207 219 228 236 240 233 239 226 188 168 143 166 197 213 209 176 200 227 109 118 104 122 151 149 160 168 133 169 185 169 150 134 161 213 254 222 179 157 213 190 161 250 270 295 269 133 205 193 165 139 139 205 191 147 145 140 135 136 157 254 261 278 265 268 290 251 219 253 266 273 257 250 251 247 243 246 248 252 260 266 271 272 275 277
239 235 232 215 207 207 213 231 231 230 247 220 174 142 126 190 199 204 207 210 197 36 41 89 87 103 146 164 210 176 143 214 179 148 141 134 155 215 244 237 210 113 99 144 153 179 220 282 210 174 190 185 184 184 161 144 159 185 160 137 157 164 173 214 213 215 250 279 314 278 224 202 217 260 251 249 263 262 253 253 256 259 262 267 271 273 273 275
245 243 237 229 220 206 205 219 222 231 236 184 147 132 183 197 218 200 206 213 152 65 16 49 91 115 181 263 287 195 166 221 171 129 153 164 179 202 198 207 199 158 139 184 221 167 205 263 241 258 165 168 179 185 138 117 140 211 118 119 193 192 153 157 191 178 183 331 312 240 233 219 212 275 275 261 271 272 261 258 258 258 259 263 267 267 266 272
252 249 244 241 232 215 208 207 209 229 213 156 130 213 197 209 232 182 223 242 143 128 100 60 76 118 195 244 275 230 218 96 147 139 194 205 226 208 200 214 196 182 178 185 197 141 172 275 292 349 43 169 181 173 144 140 173 165 140 178 211 165 119 111 219 115 80 265 274 205 248 279 311 284 271 258 265 273 268 264 257 254 256 261 262 259 263 277
256 255 254 247 234 223 216 205 203 217 192 151 144 217 186 249 214 184 262 353 134 137 132 160 184 154 185 198 208 213 205 73 150 173 198 202 248 208 203 239 201 194 200 196 210 196 164 257 300 39 151 252 309 105 90 52 120 134 185 201 170 109 100 111 187 0 45 242 273 253 241 275 306 277 291 298 258 260 260 256 256 260 261 258 257 260 268 277
264 265 264 256 242 231 217 204 202 201 178 148 201 214 177 216 203 188 181 149 124 128 172 210 203 157 174 192 206 188 171 174 176 189 190 189 248 206 183 210 205 203 208 201 217 247 165 232 298 41 183 271 0 116 112 12 71 132 183 175 120 145 183 114 161 191 211 233 270 283 267 255 223 234 277 245 231 240 247 249 258 264 256 252 257 262 264 261
275 277 274 264 245 228 215 202 195 188 168 146 217 210 194 209 202 188 179 165 130 137 206 233 216 172 169 177 182 160 175 190 172 179 188 183 238 209 180 196 211 208 204 190 191 251 148 203 272 320 257 280 37 167 193 200 36 56 98 114 91 166 177 169 161 167 191 205 231 290 310 264 225 207 199 219 225 223 230 238 243 248 248 249 251 248 225 210
273 272 261 223 203 201 194 189 187 180 168 203 213 203 186 193 196 196 194 186 150 152 205 226 210 220 206 177 173 167 185 192 172 186 210 189 221 239 192 192 191 192 190 182 187 225 98 199 240 313 326 203 174 215 197 176 160 143 158 170 192 184 122 179 212 134 151 167 182 246 276 266 249 193 188 216 226 217 212 219 234 245 252 243 203 174 175 188
198 214 244 182 168 169 173 177 180 181 192 217 216 229 200 158 179 203 204 195 176 166 173 197 209 211 193 188 213 186 173 182 179 190 220 201 215 246 204 193 172 123 137 165 195 201 170 193 188 159 241 197 213 250 207 185 182 178 186 192 194 184 153 190 234 210 124 149 176 177 241 270 258 183 196 217 217 217 217 225 241 242 236 220 184 163 159 153
191 205 160 158 169 169 169 173 182 186 207 214 215 224 187 129 143 192 197 196 202 197 144 184 224 207 186 191 209 182 164 182 188 190 218 217 214 222 207 192 176 154 144 164 203 194 159 115 141 189 217 212 235 300 279 218 200 182 207 206 194 192 181 185 211 211 155 153 171 126 208 267 252 178 200 222 209 228 239 244 256 244 213 194 183 179 168 149
204 214 169 146 173 180 176 184 208 185 213 229 222 221 182 153 150 172 181 188 197 200 196 203 196 202 213 197 177 180 181 193 192 196 217 231 225 230 213 186 174 159 149 155 211 166 132 112 176 241 294 303 321 339 4 34 126 210 243 210 165 202 200 178 180 177 161 176 177 132 227 260 262 195 214 241 243 254 254 247 249 245 225 196 187 189 183 172
212 230 213 179 184 190 187 189 200 198 219 225 222 221 212 212 184 170 178 185 187 181 196 214 203 207 222 170 142 197 202 204 210 210 215 230 236 238 211 190 180 166 174 190 179 170 169 183 182 183 296 312 325 322 300 283 203 223 245 197 168 188 167 126 104 138 175 213 196 188 231 251 271 344 286 253 258 266 259 248 243 243 234 218 203 194 191 198
188 230 234 225 217 218 226 230 201 212 219 217 223 216 216 227 199 193 193 188 187 177 172 211 207 198 193 145 150 234 208 207 235 233 222 235 252 257 206 198 188 188 210 211 181 172 175 194 179 180 217 227 226 226 218 213 196 210 239 199 193 188 169 163 195 175 218 233 206 201 240 250 269 330 323 272 264 269 260 251 243 241 236 227 217 210 206 210
180 197 224 230 230 236 251 253 242 243 222 217 224 216 215 230 213 200 200 198 195 192 195 206 191 180 186 193 209 241 231 225 243 248 229 237 252 4 213 206 196 203 219 221 183 168 159 225 197 196 212 214 222 229 198 130 146 196 217 206 198 197 186 183 196 195 216 234 232 228 236 250 260 268 275 264 245 239 257 253 239 238 237 225 215 216 219 226
199 201 182 199 222 226 242 249 235 219 220 212 203 201 213 221 228 201 199 202 197 195 210 226 180 176 188 197 212 229 224 225 237 246 248 244 253 311 329 213 208 216 222 212 183 168 100 249 215 217 223 221 231 232 192 151 179 201 210 207 200 196 187 188 207 215 214 224 242 238 229 242 256 252 239 243 240 232 249 254 243 236 229 222 221 222 225 233
209 219 196 192 196 195 221 231 217 212 234 232 217 214 210 211 218 209 197 203 202 195 204 229 203 201 197 190 203 221 213 216 225 232 244 248 253 291 309 263 225 225 224 208 188 175 163 230 220 227 234 236 244 241 192 175 202 204 205 208 201 189 186 195 211 220 218 215 233 241 232 232 246 249 239 227 220 225 232 239 244 241 229 226 231 232 232 236
212 230 210 202 214 210 173 164 169 200 224 233 234 240 225 212 216 213 186 187 211 200 201 217 213 211 210 199 200 214 208 207 218 223 233 243 241 250 265 263 248 221 199 192 213 189 166 227 229 227 237 245 250 249 214 194 217 222 213 212 201 190 191 200 211 220 223 223 232 244 247 245 244 244 240 228 223 229 236 238 241 243 238 235 236 237 239 242
210 215 208 198 225 244 217 113 102 169 221 222 227 234 238 234 230 225 191 188 207 195 199 218 224 211 209 209 210 220 217 208 217 221 213 222 231 221 226 242 242 211 164 171 245 322 180 232 246 235 246 256 255 255 242 206 219 242 241 227 211 201 202 209 216 221 224 230 237 242 251 258 252 226 222 229 225 227 237 243 243 246 249 250 248 247 247 249
215 210 202 191 222 237 244 245 191 176 231 210 216 230 237 238 234 240 233 214 220 219 196 211 226 222 212 214 214 223 226 217 221 227 216 210 220 218 215 219 197 153 142 165 156 112 188 240 299 255 248 251 249 254 255 197 201 249 255 233 215 210 212 215 218 221 219 224 233 237 246 256 249 162 200 220 215 217 227 234 240 247 250 251 252 252 252 254
220 213 204 196 212 216 218 229 189 198 232 221 214 228 239 248 238 234 252 230 225 236 233 219 225 230 219 220 221 225 230 229 230 235 232 228 230 228 218 207 189 167 163 170 158 158 171 190 223 209 226 246 246 250 255 103 205 248 240 228 220 216 218 221 229 233 224 216 220 225 236 245 237 159 198 216 200 207 221 224 231 241 246 248 251 252 254 257